When you browse on this site, cookies collect data to enhance your experience and personalize the content and advertising you see.
Visit our Privacy Policy to learn more. By continuing to use the site, you agree to this use of cookies and data.
  • In United Kingdom
  • List of Countries
  • For 7 days
  • Water Temperature
  • Weather Map
  • Weather Widgets
  • user-avatar
    Login

    Hourly Weather Zaswiatycze

    Today, 27 February, Thursday

    Time Temperature Precipitation Wind Pressure Humidity
    00:00 +1°C° 0 mm 5 mps 732 mmHg 82%
    01:00 +1°C° 0 mm 5 mps 733 mmHg 80%
    02:00 0°C° 0 mm 5 mps 733 mmHg 79%
    03:00 0°C° 0 mm 5 mps 733 mmHg 82%
    04:00 0°C° 0 mm 5 mps 733 mmHg 85%
    05:00 0°C° 0 mm 5 mps 733 mmHg 88%
    06:00 0°C° 0 mm 5 mps 734 mmHg 87%
    07:00 0°C° 0 mm 5 mps 734 mmHg 86%
    08:00 0°C° 0 mm 5 mps 735 mmHg 84%
    09:00 -1°C° 0 mm 6 mps 735 mmHg 78%
    10:00 +1°C° 0 mm 6 mps 735 mmHg 72%
    11:00 0°C° 0 mm 7 mps 735 mmHg 66%
    12:00 +2°C° 0 mm 7 mps 735 mmHg 63%
    13:00 +2°C° 0 mm 6 mps 736 mmHg 60%
    14:00 +2°C° 0 mm 6 mps 736 mmHg 57%
    15:00 +2°C° 0 mm 6 mps 736 mmHg 57%
    16:00 +2°C° 0 mm 5 mps 736 mmHg 57%
    17:00 +2°C° 0 mm 5 mps 736 mmHg 57%
    18:00 +1°C° 0 mm 4 mps 736 mmHg 62%
    19:00 0°C° 0 mm 4 mps 736 mmHg 66%
    20:00 0°C° 0 mm 3 mps 736 mmHg 70%
    21:00 0°C° 0 mm 3 mps 736 mmHg 72%
    22:00 -1°C° 0 mm 3 mps 736 mmHg 75%
    23:00 -1°C° 0 mm 2 mps 736 mmHg 77%

    Tomorrow, 28 February, Friday

    Time Temperature Precipitation Wind Pressure Humidity
    00:00 -1°C° 0 mm 2 mps 736 mmHg 78%
    01:00 -1°C° 0 mm 2 mps 736 mmHg 79%
    02:00 -1°C° 0 mm 2 mps 736 mmHg 79%
    03:00 -1°C° 0 mm 2 mps 737 mmHg 81%
    04:00 +1°C° 0 mm 1 mps 737 mmHg 82%
    05:00 +1°C° 0 mm 1 mps 737 mmHg 84%
    06:00 +1°C° 0 mm 1 mps 737 mmHg 83%
    07:00 +1°C° 0 mm 1 mps 737 mmHg 83%
    08:00 +1°C° 0 mm 1 mps 738 mmHg 83%
    09:00 +2°C° 0 mm 1 mps 738 mmHg 77%
    10:00 +3°C° 0 mm 1 mps 739 mmHg 72%
    11:00 +3°C° 0 mm 2 mps 739 mmHg 66%
    12:00 +4°C° 0 mm 2 mps 739 mmHg 64%
    13:00 +3°C° 0 mm 3 mps 740 mmHg 62%
    14:00 +4°C° 0 mm 4 mps 740 mmHg 59%
    15:00 +3°C° 0 mm 3 mps 741 mmHg 61%
    16:00 +3°C° 0 mm 3 mps 741 mmHg 63%
    17:00 +3°C° 0 mm 3 mps 742 mmHg 65%
    18:00 +2°C° 0 mm 3 mps 742 mmHg 70%
    19:00 +1°C° 0 mm 3 mps 743 mmHg 74%
    20:00 +1°C° 0 mm 3 mps 743 mmHg 79%
    21:00 0°C° 0 mm 3 mps 744 mmHg 81%
    22:00 0°C° 0 mm 3 mps 744 mmHg 82%
    23:00 -1°C° 0 mm 4 mps 745 mmHg 83%

    Day after tomorrow, 29 February, Saturday

    Time Temperature Precipitation Wind Pressure Humidity
    00:00 -2°C° 0 mm 4 mps 745 mmHg 84%
    01:00 -2°C° 0 mm 4 mps 745 mmHg 86%
    02:00 -2°C° 0 mm 4 mps 745 mmHg 87%
    03:00 -2°C° 0 mm 4 mps 745 mmHg 86%
    04:00 -2°C° 0 mm 4 mps 745 mmHg 86%
    05:00 -2°C° 0 mm 4 mps 745 mmHg 86%
    06:00 -2°C° 0 mm 4 mps 745 mmHg 87%
    07:00 -2°C° 0 mm 4 mps 745 mmHg 88%
    08:00 -2°C° 0 mm 4 mps 745 mmHg 89%
    09:00 -1°C° 0 mm 4 mps 745 mmHg 83%
    10:00 0°C° 0 mm 4 mps 746 mmHg 77%
    11:00 +3°C° 0 mm 4 mps 746 mmHg 72%
    12:00 +4°C° 0 mm 4 mps 745 mmHg 66%
    13:00 +4°C° 0 mm 4 mps 745 mmHg 61%
    14:00 +5°C° 0 mm 4 mps 745 mmHg 55%
    15:00 +5°C° 0 mm 4 mps 744 mmHg 55%
    16:00 +5°C° 0 mm 4 mps 744 mmHg 55%
    17:00 +5°C° 0 mm 5 mps 743 mmHg 54%
    18:00 +3°C° 0 mm 5 mps 743 mmHg 58%
    19:00 +2°C° 0 mm 5 mps 743 mmHg 62%
    20:00 +2°C° 0 mm 5 mps 743 mmHg 66%
    21:00 +1°C° 0 mm 6 mps 742 mmHg 67%
    22:00 +1°C° 0 mm 6 mps 742 mmHg 67%
    23:00 +1°C° 0 mm 6 mps 742 mmHg 67%

    1 March, Sunday

    Time Temperature Precipitation Wind Pressure Humidity
    00:00 +1°C° 0 mm 6 mps 742 mmHg 66%
    01:00 +1°C° 0 mm 6 mps 741 mmHg 65%
    02:00 +1°C° 0 mm 6 mps 741 mmHg 64%
    03:00 +1°C° 0 mm 6 mps 741 mmHg 63%
    04:00 +1°C° 0 mm 6 mps 741 mmHg 63%
    05:00 +1°C° 0 mm 5 mps 741 mmHg 62%
    06:00 +1°C° 0 mm 5 mps 740 mmHg 65%
    07:00 +1°C° 0 mm 5 mps 740 mmHg 67%
    08:00 +1°C° 0 mm 5 mps 740 mmHg 69%
    09:00 +1°C° 0.2 mm 5 mps 740 mmHg 76%
    10:00 +1°C° 0.2 mm 6 mps 740 mmHg 82%
    11:00 +1°C° 0.2 mm 6 mps 740 mmHg 88%
    12:00 +1°C° 0.6 mm 6 mps 740 mmHg 90%
    13:00 +1°C° 0.6 mm 5 mps 740 mmHg 92%
    14:00 +1°C° 0.6 mm 5 mps 740 mmHg 94%
    15:00 +2°C° 0.1 mm 5 mps 740 mmHg 92%
    16:00 +3°C° 0.1 mm 4 mps 739 mmHg 89%
    17:00 +4°C° 0.1 mm 4 mps 739 mmHg 87%
    18:00 +3°C° 0 mm 4 mps 739 mmHg 88%
    19:00 +3°C° 0 mm 4 mps 740 mmHg 89%
    20:00 +3°C° 0 mm 4 mps 740 mmHg 90%
    21:00 +3°C° 0 mm 4 mps 740 mmHg 89%
    22:00 +1°C° 0 mm 4 mps 740 mmHg 88%
    23:00 +2°C° 0 mm 3 mps 739 mmHg 87%

    2 March, Monday

    Time Temperature Precipitation Wind Pressure Humidity
    00:00 +1°C° 0 mm 3 mps 739 mmHg 88%
    01:00 +1°C° 0 mm 3 mps 739 mmHg 89%
    02:00 +2°C° 0 mm 2 mps 739 mmHg 90%
    03:00 +2°C° 0 mm 2 mps 738 mmHg 92%
    04:00 +1°C° 0 mm 3 mps 738 mmHg 93%
    05:00 +1°C° 0 mm 3 mps 737 mmHg 94%
    06:00 +1°C° 0 mm 4 mps 737 mmHg 93%
    07:00 +1°C° 0 mm 4 mps 737 mmHg 92%
    08:00 +2°C° 0 mm 5 mps 736 mmHg 91%
    09:00 +3°C° 0.6 mm 5 mps 736 mmHg 92%
    10:00 +3°C° 0.6 mm 5 mps 735 mmHg 93%
    11:00 +5°C° 0.6 mm 5 mps 735 mmHg 93%
    12:00 +5°C° 0.4 mm 5 mps 734 mmHg 90%
    13:00 +5°C° 0.4 mm 5 mps 734 mmHg 87%
    14:00 +5°C° 0.4 mm 5 mps 733 mmHg 83%
    15:00 +5°C° 0.2 mm 5 mps 733 mmHg 84%
    16:00 +5°C° 0.2 mm 4 mps 732 mmHg 84%
    17:00 +5°C° 0.2 mm 4 mps 732 mmHg 84%
    18:00 +5°C° 0.6 mm 4 mps 732 mmHg 88%
    19:00 +5°C° 0.6 mm 4 mps 733 mmHg 92%
    20:00 +5°C° 0.6 mm 4 mps 733 mmHg 95%
    21:00 +5°C° 0.2 mm 4 mps 733 mmHg 93%
    22:00 +5°C° 0.2 mm 5 mps 734 mmHg 90%
    23:00 +3°C° 0.2 mm 6 mps 735 mmHg 87%

    3 March, Tuesday

    Time Temperature Precipitation Wind Pressure Humidity
    00:00 +3°C° 0 mm 5 mps 736 mmHg 86%
    01:00 +2°C° 0 mm 5 mps 736 mmHg 85%
    02:00 +3°C° 0 mm 4 mps 737 mmHg 84%
    03:00 +1°C° 0 mm 4 mps 738 mmHg 87%
    04:00 +1°C° 0 mm 3 mps 738 mmHg 89%
    05:00 +2°C° 0 mm 2 mps 739 mmHg 91%
    06:00 +2°C° 0 mm 2 mps 739 mmHg 90%
    07:00 +2°C° 0 mm 2 mps 740 mmHg 88%
    08:00 +2°C° 0 mm 2 mps 740 mmHg 87%
    09:00 +2°C° 0 mm 3 mps 741 mmHg 79%
    10:00 +4°C° 0 mm 3 mps 741 mmHg 72%
    11:00 +5°C° 0 mm 3 mps 741 mmHg 65%
    12:00 +7°C° 0 mm 3 mps 742 mmHg 60%
    13:00 +8°C° 0 mm 3 mps 742 mmHg 54%
    14:00 +9°C° 0 mm 3 mps 742 mmHg 49%
    15:00 +9°C° 0 mm 3 mps 741 mmHg 50%
    16:00 +8°C° 0 mm 2 mps 741 mmHg 52%
    17:00 +8°C° 0 mm 2 mps 741 mmHg 54%
    18:00 +7°C° 0 mm 2 mps 741 mmHg 58%
    19:00 +7°C° 0 mm 3 mps 741 mmHg 61%
    20:00 +5°C° 0 mm 3 mps 741 mmHg 65%
    21:00 +5°C° 0.1 mm 3 mps 740 mmHg 67%
    22:00 +5°C° 0.1 mm 3 mps 740 mmHg 69%
    23:00 +5°C° 0.1 mm 3 mps 740 mmHg 71%
    Show more